DW7898 Weather Reports


time (UTC)temp
C
wind
direction
speed
KPH
gust
KPH
rain 1hr
cm
rain 24hr
cm
rain mn
cm
humidity
%
barometer
mb
20260507070339 14 49 1.6 3.2 0.00 0.00 0.00 74 1015.4
20260507065356 14 49 3.2 4.8 0.00 0.00 0.00 74 1015.2
20260507064340 14 49 0.0 6.4 0.00 0.00 0.00 76 1015.3
20260507063342 13 50 3.2 8.0 0.00 0.00 0.00 77 1015.0
20260507062339 13 62 3.2 8.0 0.00 0.00 0.00 79 1015.0
20260507061340 13 68 0.0 8.0 0.00 0.00 0.00 81 1015.1
20260507060344 13 46 3.2 6.4 0.00 0.00 0.00 83 1014.9
20260507055346 13 40 0.0 4.8 0.00 0.00 0.00 84 1015.0
20260507054351 12 39 0.0 3.2 0.00 0.00 0.00 84 1014.8
20260507053339 12 40 0.0 3.2 0.00 0.00 0.00 85 1014.9
20260507052337 12 39 0.0 0.0 0.00 0.00 0.00 85 1014.7
20260507051343 12 39 0.0 0.0 0.00 0.00 0.00 85 1014.5
20260507050345 12 39 0.0 0.0 0.00 0.00 0.00 84 1014.5
20260507045340 12 39 0.0 0.0 0.00 0.00 0.00 84 1014.3
20260507044338 12 48 0.0 0.0 0.00 0.00 0.00 84 1014.4
20260507043341 12 48 0.0 0.0 0.00 0.00 0.00 83 1014.5
20260507042339 12 48 0.0 0.0 0.00 0.00 0.00 83 1014.3
20260507041343 12 48 0.0 0.0 0.00 0.00 0.00 83 1014.4
20260507040349 12 48 0.0 0.0 0.00 0.00 0.00 82 1014.3
20260507035347 12 48 0.0 0.0 0.00 0.00 0.00 83 1014.4
20260507034350 12 48 0.0 0.0 0.00 0.00 0.00 82 1014.3
20260507033357 12 48 0.0 0.0 0.00 0.00 0.00 81 1014.4
20260507032353 13 48 0.0 0.0 0.00 0.00 0.00 82 1014.4
20260507031337 13 48 0.0 0.0 0.00 0.00 0.00 82 1014.4
20260507030338 13 48 0.0 0.0 0.00 0.00 0.00 81 1014.4
20260507025344 13 48 0.0 0.0 0.00 0.00 0.00 81 1014.4
20260507024350 13 48 0.0 4.8 0.00 0.00 0.00 81 1014.4
20260507023355 13 47 1.6 8.0 0.00 0.00 0.00 81 1014.3
20260507022355 13 43 3.2 6.4 0.00 0.00 0.00 80 1014.3
20260507021341 13 40 3.2 8.0 0.00 0.00 0.00 80 1014.4
20260507020342 13 36 0.0 3.2 0.00 0.00 0.00 80 1014.4
20260507015340 13 36 1.6 6.4 0.00 0.00 0.00 80 1014.4
20260507014342 14 35 0.0 0.0 0.00 0.00 0.00 79 1014.6
20260507013343 14 35 0.0 0.0 0.00 0.00 0.00 79 1014.5
20260507012337 13 35 0.0 0.0 0.00 0.00 0.00 78 1014.5
20260507011336 13 35 1.6 4.8 0.00 0.00 0.00 76 1014.6
20260507010341 15 34 0.0 6.4 0.00 0.00 0.00 77 1014.5
20260507005340 15 29 3.2 8.0 0.00 0.00 0.00 77 1014.5
20260507004343 15 29 3.2 6.4 0.00 0.00 0.00 77 1014.6
20260507003351 15 27 0.0 12.9 0.00 0.00 0.00 76 1014.7
20260507002350 15 11 8.0 11.3 0.00 0.00 0.00 76 1014.7
20260507001352 15 54 0.0 4.8 0.00 0.00 0.00 76 1014.8
20260507000357 15 54 0.0 6.4 0.00 0.00 0.00 76 1014.9
20260506235358 15 48 1.6 6.4 0.00 0.00 0.00 76 1014.8
20260506234342 15 46 4.8 9.7 0.00 0.00 0.00 76 1014.8
20260506233350 15 50 6.4 11.3 0.00 0.00 0.00 76 1014.8
20260506232347 15 36 6.4 12.9 0.00 0.00 0.00 76 1014.8
20260506231354 15 55 4.8 8.0 0.00 0.00 0.00 76 1014.8
20260506230336 15 56 3.2 6.4 0.00 0.00 0.00 75 1014.8
20260506225338 15 55 3.2 9.7 0.00 0.00 0.00 75 1014.8
20260506224340 15 39 6.4 11.3 0.00 0.00 0.00 75 1014.8
20260506223342 15 32 4.8 8.0 0.00 0.00 0.00 75 1014.8
20260506222337 15 44 4.8 9.7 0.00 0.00 0.00 74 1014.8
20260506221335 15 34 3.2 6.4 0.00 0.00 0.00 72 1014.8
20260506220340 16 25 3.2 4.8 0.00 0.00 0.00 72 1014.7
20260506215339 16 25 1.6 4.8 0.00 0.00 0.00 71 1014.6
20260506214340 16 26 0.0 3.2 0.00 0.00 0.00 71 1014.7
20260506213343 16 26 0.0 3.2 0.00 0.00 0.00 70 1014.6
20260506212341 16 26 1.6 6.4 0.00 0.00 0.00 70 1014.7
20260506211351 16 19 1.6 3.2 0.00 0.00 0.00 69 1014.5
20260506210355 16 19 3.2 6.4 0.00 0.00 0.00 68 1014.6
20260506205338 16 164 3.2 4.8 0.00 0.00 0.00 68 1014.6
20260506204341 16 164 0.0 1.6 0.00 0.00 0.00 68 1014.4
20260506203348 16 164 0.0 3.2 0.00 0.00 0.00 68 1014.2
20260506202348 16 178 1.6 4.8 0.00 0.00 0.00 68 1014.1
20260506201351 16 203 3.2 6.4 0.00 0.00 0.00 68 1014.1
20260506200353 16 225 1.6 6.4 0.00 0.00 0.00 68 1013.9
20260506195350 16 227 1.6 4.8 0.00 0.00 0.00 67 1013.7
20260506194354 17 223 1.6 6.4 0.00 0.00 0.00 67 1013.6
20260506193341 17 223 1.6 4.8 0.00 0.00 0.00 66 1013.4
20260506192340 17 223 3.2 6.4 0.00 0.00 0.00 67 1013.2
20260506191344 17 227 1.6 6.4 0.00 0.00 0.00 67 1013.1
20260506190354 17 228 1.6 8.0 0.00 0.00 0.00 67 1013.0
20260506185337 17 196 3.2 9.7 0.00 0.00 0.00 66 1012.9
20260506184337 17 193 3.2 11.3 0.00 0.00 0.00 65 1012.8
20260506183340 17 123 6.4 14.5 0.00 0.00 0.00 62 1012.5
20260506182336 18 132 1.6 11.3 0.00 0.00 0.00 61 1012.5
20260506181342 18 105 3.2 16.1 0.00 0.00 0.00 62 1012.4
20260506180347 18 122 8.0 16.1 0.00 0.00 0.00 61 1012.4
20260506175348 18 222 4.8 16.1 0.00 0.00 0.00 61 1012.1
20260506174340 18 179 1.6 9.7 0.00 0.00 0.00 60 1012.1
20260506173357 18 103 3.2 14.5 0.00 0.00 0.00 58 1012.1
20260506172357 18 177 8.0 16.1 0.00 0.00 0.00 56 1012.1
20260506171358 18 120 6.4 16.1 0.00 0.00 0.00 54 1012.0
20260506170336 18 120 9.7 16.1 0.00 0.00 0.00 53 1012.0
20260506165338 18 138 12.9 16.1 0.00 0.00 0.00 51 1011.8
20260506164343 18 112 8.0 14.5 0.00 0.00 0.00 48 1011.8
20260506163345 18 124 9.7 19.3 0.00 0.00 0.00 45 1011.9
20260506162339 18 82 8.0 22.5 0.00 0.00 0.00 45 1011.7
20260506161341 18 150 8.0 20.9 0.00 0.00 0.00 43 1011.5
20260506160350 18 189 6.4 20.9 0.00 0.00 0.00 44 1011.4
20260506155351 19 136 8.0 19.3 0.00 0.00 0.00 44 1011.4
20260506154336 19 136 9.7 22.5 0.00 0.00 0.00 45 1011.4
20260506153339 19 180 6.4 22.5 0.00 0.00 0.00 45 1011.3
20260506152357 19 113 8.0 33.8 0.00 0.00 0.00 44 1011.4
20260506151338 19 128 8.0 32.2 0.00 0.00 0.00 43 1011.4
20260506150339 19 171 11.3 30.6 0.00 0.00 0.00 44 1011.5
20260506145358 19 95 11.3 22.5 0.00 0.00 0.00 42 1011.4
20260506144356 19 113 9.7 27.4 0.00 0.00 0.00 41 1011.5
20260506143357 19 208 6.4 24.1 0.00 0.00 0.00 41 1011.6
20260506142352 19 143 12.9 29.0 0.00 0.00 0.00 41 1011.7
20260506141354 19 132 8.0 25.7 0.00 0.00 0.00 41 1011.7
20260506140348 19 156 9.7 25.7 0.00 0.00 0.00 40 1011.8
20260506135347 19 109 12.9 27.4 0.00 0.00 0.00 39 1012.0
20260506134351 20 135 17.7 27.4 0.00 0.00 0.00 39 1011.9
20260506133338 19 117 16.1 24.1 0.00 0.00 0.00 39 1012.1
20260506132339 19 126 11.3 24.1 0.00 0.00 0.00 38 1012.1
20260506131344 19 128 16.1 24.1 0.00 0.00 0.00 39 1012.2
20260506130351 20 109 9.7 20.9 0.00 0.00 0.00 39 1012.3
20260506125349 19 129 11.3 25.7 0.00 0.00 0.00 39 1012.4
20260506124355 20 137 9.7 29.0 0.00 0.00 0.00 38 1012.2
20260506123352 20 277 4.8 24.1 0.00 0.00 0.00 38 1012.2
20260506122353 21 149 8.0 17.7 0.00 0.00 0.00 38 1012.3
20260506121356 20 260 4.8 12.9 0.00 0.00 0.00 39 1012.4
20260506120356 20 235 4.8 17.7 0.00 0.00 0.00 38 1012.5
20260506115352 20 277 11.3 19.3 0.00 0.00 0.00 38 1012.6
20260506114354 20 263 1.6 14.5 0.00 0.00 0.00 39 1012.6
20260506113339 20 161 1.6 11.3 0.00 0.00 0.00 39 1012.6
20260506112337 20 262 11.3 17.7 0.00 0.00 0.00 41 1012.5
20260506111338 20 255 6.4 17.7 0.00 0.00 0.00 40 1012.7
20260506110340 20 328 4.8 8.0 0.00 0.00 0.00 41 1012.9
20260506105359 18 82 1.6 12.9 0.00 0.00 0.00 42 1012.8
20260506104356 18 14 4.8 14.5 0.00 0.00 0.00 42 1013.1
20260506103343 18 53 1.6 9.7 0.00 0.00 0.00 43 1013.1
20260506102337 18 271 3.2 8.0 0.00 0.00 0.00 45 1013.2
20260506101339 18 261 6.4 14.5 0.00 0.00 0.00 45 1013.2
20260506100347 18 227 1.6 12.9 0.00 0.00 0.00 46 1013.3
20260506095345 18 266 4.8 9.7 0.00 0.00 0.00 46 1013.4
20260506094353 18 302 3.2 20.9 0.00 0.00 0.00 45 1013.6
20260506093344 18 99 0.0 8.0 0.00 0.00 0.00 45 1013.5
20260506092339 17 59 1.6 6.4 0.00 0.00 0.00 47 1013.5
20260506091336 17 325 0.0 6.4 0.00 0.00 0.00 50 1013.5
20260506090343 17 76 0.0 6.4 0.00 0.00 0.00 52 1013.5
20260506085344 16 330 6.4 8.0 0.00 0.00 0.00 54 1013.5
20260506084351 16 255 1.6 9.7 0.00 0.00 0.00 56 1013.4
20260506083355 16 270 4.8 8.0 0.00 0.00 0.00 57 1013.4
20260506082337 15 269 4.8 8.0 0.00 0.00 0.00 59 1013.3
20260506081359 15 323 4.8 8.0 0.00 0.00 0.00 59 1013.4
20260506080336 15 295 3.2 8.0 0.00 0.00 0.00 60 1013.4
20260506073339 14 348 1.6 6.4 0.00 0.00 0.00 66 1013.3
20260506072338 14 0 4.8 8.0 0.00 0.00 0.00 68 1013.2
20260506071342 14 50 1.6 4.8 0.00 0.00 0.00 71 1013.1